When you browse on this site, cookies collect data to enhance your experience and personalize the content and advertising you see.
Visit our Privacy Policy to learn more. By continuing to use the site, you agree to this use of cookies and data.
  • In Hungary
  • List of Countries
  • For 7 days
  • Water Temperature
  • Satellite Maps
  • Weather Map
  • News
  • Weather Widgets
  • user-avatar
    Login

    Hourly Weather Kaman

    Today, 20 July, Saturday

    Time Temperature Precipitation Wind Pressure Humidity
    00:00 +35°C° 0 mm 1 mps 734 mmHg 53%
    01:00 +35°C° 0 mm 1 mps 734 mmHg 55%
    02:00 +34°C° 0 mm 1 mps 734 mmHg 56%
    03:00 +34°C° 0 mm 1 mps 734 mmHg 57%
    04:00 +34°C° 0 mm 1 mps 734 mmHg 58%
    05:00 +34°C° 0 mm 1 mps 734 mmHg 59%
    06:00 +35°C° 0 mm 1 mps 735 mmHg 55%
    07:00 +37°C° 0 mm 2 mps 735 mmHg 51%
    08:00 +38°C° 0 mm 2 mps 736 mmHg 48%
    09:00 +39°C° 0 mm 2 mps 736 mmHg 43%
    10:00 +40°C° 0 mm 1 mps 736 mmHg 39%
    11:00 +41°C° 0 mm 1 mps 735 mmHg 35%
    12:00 +42°C° 0 mm 1 mps 735 mmHg 34%
    13:00 +42°C° 0 mm 1 mps 734 mmHg 34%
    14:00 +42°C° 0 mm 1 mps 734 mmHg 33%
    15:00 +42°C° 0 mm 1 mps 733 mmHg 33%
    16:00 +42°C° 0 mm 1 mps 733 mmHg 33%
    17:00 +42°C° 0 mm 1 mps 733 mmHg 32%
    18:00 +41°C° 0 mm 1 mps 733 mmHg 35%
    19:00 +40°C° 0 mm 1 mps 733 mmHg 37%
    20:00 +39°C° 0 mm 2 mps 733 mmHg 40%
    21:00 +39°C° 0 mm 1 mps 733 mmHg 41%
    22:00 +39°C° 0 mm 1 mps 733 mmHg 42%
    23:00 +37°C° 0 mm 1 mps 733 mmHg 44%

    Tomorrow, 21 July, Sunday

    Time Temperature Precipitation Wind Pressure Humidity
    00:00 +37°C° 0 mm 1 mps 733 mmHg 45%
    01:00 +37°C° 0 mm 1 mps 733 mmHg 45%
    02:00 +36°C° 0 mm 1 mps 733 mmHg 46%
    03:00 +34°C° 0 mm 0 mps 733 mmHg 47%
    04:00 +34°C° 0 mm 0 mps 733 mmHg 47%
    05:00 +34°C° 0 mm 0 mps 733 mmHg 48%
    06:00 +34°C° 0 mm 0 mps 733 mmHg 46%
    07:00 +37°C° 0 mm 1 mps 734 mmHg 43%
    08:00 +39°C° 0 mm 1 mps 734 mmHg 41%
    09:00 +40°C° 0 mm 1 mps 734 mmHg 38%
    10:00 +41°C° 0 mm 1 mps 734 mmHg 36%
    11:00 +42°C° 0 mm 1 mps 734 mmHg 33%
    12:00 +42°C° 0 mm 1 mps 734 mmHg 32%
    13:00 +43°C° 0 mm 1 mps 733 mmHg 30%
    14:00 +43°C° 0 mm 1 mps 733 mmHg 29%
    15:00 +43°C° 0 mm 1 mps 732 mmHg 30%
    16:00 +42°C° 0 mm 1 mps 732 mmHg 31%
    17:00 +42°C° 0 mm 1 mps 732 mmHg 32%
    18:00 +41°C° 0 mm 1 mps 732 mmHg 33%
    19:00 +41°C° 0 mm 1 mps 732 mmHg 35%
    20:00 +40°C° 0 mm 1 mps 732 mmHg 37%
    21:00 +40°C° 0 mm 1 mps 732 mmHg 37%
    22:00 +36°C° 0 mm 0 mps 732 mmHg 38%
    23:00 +36°C° 0 mm 0 mps 732 mmHg 39%

    Day after tomorrow, 22 July, Monday

    Time Temperature Precipitation Wind Pressure Humidity
    00:00 +36°C° 0 mm 0 mps 732 mmHg 40%
    01:00 +35°C° 0 mm 0 mps 732 mmHg 41%
    02:00 +35°C° 0 mm 0 mps 732 mmHg 41%
    03:00 +35°C° 0 mm 0 mps 732 mmHg 42%
    04:00 +34°C° 0 mm 0 mps 732 mmHg 43%
    05:00 +34°C° 0 mm 0 mps 732 mmHg 44%
    06:00 +35°C° 0 mm 0 mps 732 mmHg 41%
    07:00 +36°C° 0 mm 0 mps 732 mmHg 38%
    08:00 +38°C° 0 mm 0 mps 733 mmHg 35%
    09:00 +42°C° 0 mm 1 mps 733 mmHg 32%
    10:00 +43°C° 0 mm 2 mps 733 mmHg 29%
    11:00 +45°C° 0 mm 2 mps 733 mmHg 27%
    12:00 +45°C° 0 mm 2 mps 732 mmHg 27%
    13:00 +45°C° 0 mm 2 mps 731 mmHg 26%
    14:00 +45°C° 0 mm 2 mps 731 mmHg 26%
    15:00 +45°C° 0 mm 2 mps 731 mmHg 27%
    16:00 +45°C° 0 mm 3 mps 730 mmHg 27%
    17:00 +44°C° 0 mm 3 mps 730 mmHg 27%
    18:00 +43°C° 0 mm 2 mps 730 mmHg 29%
    19:00 +42°C° 0 mm 2 mps 730 mmHg 30%
    20:00 +41°C° 0 mm 1 mps 731 mmHg 32%
    21:00 +41°C° 0 mm 1 mps 731 mmHg 33%
    22:00 +40°C° 0 mm 1 mps 731 mmHg 34%
    23:00 +37°C° 0 mm 0 mps 731 mmHg 35%

    23 July, Tuesday

    Time Temperature Precipitation Wind Pressure Humidity
    00:00 +36°C° 0 mm 0 mps 731 mmHg 36%
    01:00 +36°C° 0 mm 0 mps 730 mmHg 36%
    02:00 +36°C° 0 mm 0 mps 730 mmHg 37%
    03:00 +35°C° 0 mm 0 mps 730 mmHg 38%
    04:00 +35°C° 0 mm 0 mps 730 mmHg 38%
    05:00 +35°C° 0 mm 0 mps 730 mmHg 39%
    06:00 +39°C° 0 mm 1 mps 731 mmHg 37%
    07:00 +40°C° 0 mm 1 mps 731 mmHg 35%
    08:00 +41°C° 0 mm 1 mps 732 mmHg 33%
    09:00 +42°C° 0 mm 2 mps 732 mmHg 31%
    10:00 +44°C° 0 mm 3 mps 732 mmHg 29%
    11:00 +45°C° 0 mm 4 mps 732 mmHg 27%
    12:00 +45°C° 0 mm 4 mps 731 mmHg 26%
    13:00 +47°C° 0 mm 4 mps 731 mmHg 25%
    14:00 +48°C° 0 mm 4 mps 730 mmHg 24%
    15:00 +48°C° 0 mm 4 mps 730 mmHg 24%
    16:00 +47°C° 0 mm 4 mps 729 mmHg 24%
    17:00 +47°C° 0 mm 4 mps 729 mmHg 24%
    18:00 +45°C° 0 mm 3 mps 729 mmHg 26%
    19:00 +44°C° 0 mm 3 mps 729 mmHg 27%
    20:00 +43°C° 0 mm 2 mps 729 mmHg 29%
    21:00 +42°C° 0 mm 2 mps 730 mmHg 30%
    22:00 +41°C° 0 mm 2 mps 730 mmHg 32%
    23:00 +41°C° 0 mm 2 mps 730 mmHg 33%

    24 July, Wednesday

    Time Temperature Precipitation Wind Pressure Humidity
    00:00 +40°C° 0 mm 2 mps 730 mmHg 35%
    01:00 +40°C° 0 mm 2 mps 730 mmHg 37%
    02:00 +39°C° 0 mm 3 mps 729 mmHg 39%
    03:00 +39°C° 0 mm 2 mps 729 mmHg 41%
    04:00 +38°C° 0 mm 2 mps 730 mmHg 42%
    05:00 +37°C° 0 mm 1 mps 730 mmHg 44%
    06:00 +39°C° 0 mm 2 mps 730 mmHg 42%
    07:00 +39°C° 0 mm 2 mps 731 mmHg 40%
    08:00 +40°C° 0 mm 2 mps 731 mmHg 37%
    09:00 +42°C° 0 mm 2 mps 731 mmHg 34%
    10:00 +44°C° 0 mm 3 mps 731 mmHg 31%
    11:00 +47°C° 0 mm 4 mps 732 mmHg 28%
    12:00 +47°C° 0 mm 4 mps 731 mmHg 28%
    13:00 +47°C° 0 mm 4 mps 731 mmHg 28%
    14:00 +47°C° 0 mm 4 mps 730 mmHg 28%
    15:00 +43°C° 1.5 mm 4 mps 730 mmHg 37%
    16:00 +40°C° 1.5 mm 5 mps 730 mmHg 46%
    17:00 +36°C° 1.5 mm 5 mps 729 mmHg 55%
    18:00 +36°C° 0.4 mm 6 mps 730 mmHg 56%
    19:00 +36°C° 0.4 mm 6 mps 730 mmHg 58%
    20:00 +36°C° 0.4 mm 6 mps 731 mmHg 59%
    21:00 +36°C° 0 mm 5 mps 731 mmHg 59%
    22:00 +36°C° 0 mm 5 mps 731 mmHg 59%
    23:00 +36°C° 0 mm 5 mps 732 mmHg 59%

    25 July, Thursday

    Time Temperature Precipitation Wind Pressure Humidity
    00:00 +35°C° 0 mm 4 mps 732 mmHg 60%
    01:00 +35°C° 0 mm 4 mps 731 mmHg 60%
    02:00 +35°C° 0 mm 3 mps 731 mmHg 61%
    03:00 +35°C° 0.4 mm 3 mps 732 mmHg 62%
    04:00 +34°C° 0.4 mm 4 mps 732 mmHg 63%
    05:00 +34°C° 0.4 mm 4 mps 732 mmHg 64%
    06:00 +34°C° 0.5 mm 5 mps 732 mmHg 65%
    07:00 +34°C° 0.5 mm 5 mps 733 mmHg 66%
    08:00 +33°C° 0.5 mm 6 mps 733 mmHg 66%
    09:00 +35°C° 0.3 mm 6 mps 733 mmHg 62%
    10:00 +36°C° 0.3 mm 5 mps 733 mmHg 58%
    11:00 +37°C° 0.3 mm 5 mps 733 mmHg 54%
    12:00 +37°C° 0 mm 5 mps 733 mmHg 55%
    13:00 +37°C° 0 mm 5 mps 732 mmHg 56%
    14:00 +37°C° 0 mm 5 mps 731 mmHg 57%
    15:00 +35°C° 4.6 mm 5 mps 731 mmHg 64%
    16:00 +33°C° 4.6 mm 5 mps 731 mmHg 71%
    17:00 +30°C° 4.6 mm 5 mps 731 mmHg 79%
    18:00 +30°C° 0.5 mm 4 mps 731 mmHg 76%
    19:00 +31°C° 0.5 mm 3 mps 731 mmHg 74%
    20:00 +31°C° 0.5 mm 2 mps 732 mmHg 71%
    21:00 +31°C° 1.2 mm 2 mps 732 mmHg 73%
    22:00 +30°C° 1.2 mm 1 mps 732 mmHg 75%
    23:00 +28°C° 1.2 mm 0 mps 732 mmHg 77%
    Show more